Regional Weather Roundup
Issued by NWS

Home | Current Version | Previous Version | Text Only | Print | Product List | Glossary On
Versions: 1 2 3 4 5 6 7 8 9 10 11 12 13 14 15 16 17 18 19 20 21 22 23 24 25 26 27 28 29 30 31 32 33 34 35 36 37 38 39 40 41 42 43 44 45 46 47 48 49 50
831
ASUS44 KBMX 260410
RWRAL

ALABAMA REGIONAL WEATHER ROUNDUP
NATIONAL WEATHER SERVICE BIRMINGHAM AL
1000 PM CST SAT FEB 25 2017

NOTE: "FAIR" INDICATES FEW OR NO CLOUDS BELOW 12,000 FEET
WITH NO SIGNIFICANT WEATHER AND/OR OBSTRUCTIONS TO VISIBILITY.

THE REMARK "TC" DENOTES TEMPERATURE IN DEGREES CELSIUS.

ALZ001>011-014-016>018-020-260500-
NORTH ALABAMA

CITY           SKY/WX    TMP DP  RH WIND       PRES   REMARKS
MUSCLE SHOALS  CLEAR     38  20  48 N5        30.17S WCI  34
HUNTSVILLE     CLEAR     39  25  57 N5        30.14R
DECATUR        CLEAR     38  25  59 NW8       30.16R WCI  32
HALEYVILLE     FAIR      36  21  54 N6        30.16R WCI  31
GADSDEN        CLEAR     42  23  46 NW7       30.13R
$$

ALZ012-013-022-023-030>036-040>044-260500-
WEST CENTRAL ALABAMA

CITY           SKY/WX    TMP DP  RH WIND       PRES   REMARKS
TUSCALOOSA     CLEAR     42  26  53 NW5       30.16R
$$

ALZ015-024>027-033>036-040>044-260500-
CENTRAL ALABAMA

CITY           SKY/WX    TMP DP  RH WIND       PRES   REMARKS
BIRMINGHAM     CLEAR     45  22  40 NW7       30.15R
MONTGOMERY     CLEAR     50  24  36 NW10      30.13R
SHELBY CO ARPT CLEAR     45  25  45 NW6       30.13R
MAXWELL AFB    CLEAR     48  25  40 NW8       30.12R
GREENVILLE     FAIR      49  24  37 N7        30.11R
$$

ALZ019-021-028-029-037-038-045>048-260500-
EAST CENTRAL ALABAMA

CITY           SKY/WX    TMP DP  RH WIND       PRES   REMARKS
ANNISTON       CLEAR     47  19  33 VRB6      30.11R
ALEXANDER CITY CLEAR     45  25  44 NW3       30.11R
AUBURN         CLEAR     47  23  38 NW9       30.09R
$$

ALZ051>064-260500-
SOUTHWEST ALABAMA

CITY           SKY/WX    TMP DP  RH WIND       PRES   REMARKS
MOBILE         PTCLDY    52  30  43 N10       30.13R
BROOKLEY FIELD PTCLDY    54  32  43 N9        30.13R
EVERGREEN      PTCLDY    44  35  70 NW3       30.13R
$$

ALZ049-050-065>069-260500-
SOUTHEAST ALABAMA

CITY           SKY/WX    TMP DP  RH WIND       PRES   REMARKS
DOTHAN         CLEAR     52  29  41 NW8       30.12R
OZARK          CLEAR     52  26  36 NW8       30.09S
TROY           PTCLDY    48  28  46 NW8       30.12R
EUFAULA        FAIR      53  23  31 W5        30.08R
$$




USA.gov is the U.S. government's official web portal to all federal, state and local government web resources and services.